This is the latest recevied weather packets stored in our database for station/object DB0MI. If no packets are shown the sender has not sent any weather packets the latest 1 day(s).
| Time | Temp. | Humidity | Pressure | Rain* | Wind** | Luminosity | Snow |
|---|---|---|---|---|---|---|---|
| 1778062902 | 17.78° C | 70% | 1006.1 hPa | 0 mm | - | - | - |
| 1778062302 | 18.33° C | 68% | 1006 hPa | 0 mm | - | - | - |
| 1778061702 | 18.33° C | 71% | 1006.2 hPa | 0 mm | - | - | - |
| 1778061102 | 18.89° C | 71% | 1006 hPa | 0 mm | - | - | - |
| 1778060502 | 17.78° C | 76% | 1006.1 hPa | 0 mm | - | - | - |
| 1778059902 | 16.67° C | 77% | 1006 hPa | 0 mm | - | - | - |
| 1778059302 | 15.56° C | 78% | 1005.9 hPa | 0 mm | - | - | - |
| 1778058702 | 16.11° C | 77% | 1005.8 hPa | 0 mm | - | - | - |
| 1778057502 | 17.22° C | 75% | 1005.7 hPa | 0 mm | - | - | - |
| 1778056902 | 17.22° C | 78% | 1005.4 hPa | 0 mm | - | - | - |
| 1778056302 | 16.67° C | 77% | 1005.2 hPa | 0 mm | - | - | - |
| 1778055702 | 16.67° C | 81% | 1005.2 hPa | 0 mm | - | - | - |
| 1778055102 | 15.56° C | 82% | 1005.1 hPa | 0 mm | - | - | - |
| 1778054502 | 15.56° C | 84% | 1005 hPa | 0 mm | - | - | - |
| 1778053902 | 15° C | 87% | 1005 hPa | 0 mm | - | - | - |
| 1778053302 | 14.44° C | 90% | 1005 hPa | 0 mm | - | - | - |
| 1778052102 | 13.33° C | 93% | 1005.2 hPa | 0 mm | - | - | - |
| 1778048502 | 10.56° C | 93% | 1005.1 hPa | 0 mm | - | - | - |
| 1778046702 | 11.11° C | 93% | 1005.1 hPa | 0 mm | - | - | - |
| 1778045502 | 10.56° C | 93% | 1005.2 hPa | 0 mm | - | - | - |
| 1778042503 | 10.56° C | 93% | 1005 hPa | 0 mm | - | - | - |
| 1778041903 | 10.56° C | 93% | 1005.1 hPa | 0 mm | - | - | - |
| 1778040703 | 10.56° C | 93% | 1005.2 hPa | 0 mm | - | - | - |
| 1778040103 | 10.56° C | 93% | 1005.2 hPa | 0 mm | - | - | - |
| 1778039503 | 10.56° C | 93% | 1005.1 hPa | 0 mm | - | - | - |
* Rain latest hour (hover to see other rain measurements)
** Current wind speed in m/s (hover to see current wind gust speed)